x

Sentry Shoal (46131) Wave Buoy

8:00am - Thu 28th Jul 2016 All times are PDT. -7 hours from GMT.

  • Sig Wave height 1.6ft
  • Peak Period 3s
  • Wind
    16mph, 18mph gusts
  • Sea Temp 61°f
  • Air Temp 61°f
  • Sea Pressure 1021.5mb
  • Sentry Shoal
  • Sentry Shoal

More Historic Weather Station data

Upgrade to MSW Pro to gain access to the past 30 days of data for over 8000 Wavebouys and Weather Stations around the globe.

Join Pro

Comparision Forecast

View Surf forecast
   
Thu 07/28 8:00am 1.6ft 3s 16 18 mph 1021.5mb 61f 61f
7:00am  -   -  18
mph
1021.2mb - 61f
6:00am 1.6ft 3s 20 22 mph 1021mb 60f 61f
5:00am 1.6ft 3s 18 20 mph 1020.5mb 60f 61f
4:00am 1.6ft 2s 18 20 mph 1020.2mb 60f 61f
3:00am 1.6ft 2s 20 25 mph 1020.1mb 60f 62f
2:00am 2ft 2s 20 25 mph 1019.6mb 60f 61f
1:00am 2ft 3s 20 25 mph 1019.4mb 61f 62f
Wed 07/27 11:00pm 1.6ft 3s 18 20 mph 1019.6mb 63f 65f
10:00pm 2ft 3s 18 20 mph 1019.3mb 63f 66f
9:00pm 2ft 3s 20 22 mph 1018.7mb 63f 68f
8:00pm 1.6ft 3s 22 25 mph 1018.2mb 64f 70f
7:00pm 1.3ft 2s 16 18 mph 1018.3mb 64f 71f
6:00pm 1.3ft 3s 16 18 mph 1018.6mb 64f 72f
5:00pm 1ft 2s 13
mph
1019.1mb 64f 70f
4:00pm 0.7ft 2s 11 13 mph 1019.4mb 65f 70f
3:00pm 0.3ft 2s 11 13 mph 1019.6mb 64f 71f
2:00pm 0.3ft 2s 7
mph
1020.1mb 64f 68f
1:00pm 0.7ft 2s 4 7 mph 1020.6mb 64f 66f
12:00pm 0.7ft 2s 7 9 mph 1021.1mb 63f 65f
11:00am 1ft 2s 11
mph
1021.2mb 63f 64f
10:00am 1ft 3s 13 18 mph 1021.2mb 63f 63f
9:00am 1ft 3s 13 16 mph 1021.5mb 64f 62f
8:00am 1.3ft 2s 13 16 mph 1021.4mb 64f 62f
7:00am 1.6ft 3s 13 16 mph 1021.4mb 65f 61f
6:00am 2ft 3s 16 18 mph 1021mb 65f 61f
5:00am 2ft 3s 16 18 mph 1020.6mb 65f 61f
4:00am 2ft 3s 18 20 mph 1020.1mb 65f 62f
3:00am 2ft 3s 18 20 mph 1019.7mb 62f 62f
2:00am 2ft 3s 18 20 mph 1019.4mb 62f 62f
1:00am 2ft 3s 20 22 mph 1019.4mb 63f 63f
12:00am 1.6ft 2s 22 25 mph 1019.4mb 64f 64f
Tue 07/26 11:00pm 2ft 3s 22 25 mph 1019.1mb 64f 65f
10:00pm 2ft 3s 22 27 mph 1018.7mb 66f 66f
9:00pm 1.6ft 3s 20 22 mph 1018.2mb 67f 68f
8:00pm 1.6ft 3s 18 22 mph 1017.8mb 68f 70f
7:00pm 1.6ft 3s 18 22 mph 1017.9mb 67f 72f
6:00pm 1.3ft 3s 16 18 mph 1018.3mb 67f 71f
5:00pm 0.7ft 3s 13 16 mph 1018.7mb 68f 71f
4:00pm 0.7ft 2s 7 9 mph 1019.2mb 68f 70f
3:00pm 0.3ft 2s 2 4 mph 1019.7mb 67f 69f
2:00pm 0.3ft 2s 4 7 mph 1020mb 66f 67f
1:00pm 0.3ft 3s 7
mph
1020.1mb 65f 66f
12:00pm 0.7ft 2s 9
mph
1020.2mb 65f 65f
11:00am 1ft 2s 9 11 mph 1020.4mb 65f 64f
10:00am 1.3ft 2s 13 16 mph 1020.5mb 65f 63f
9:00am 1.6ft 3s 13 18 mph 1020.6mb 65f 62f
8:00am 2ft 3s 13 16 mph 1020.4mb 66f 62f
7:00am 2ft 3s 18 20 mph 1019.8mb 66f 61f
6:00am 2ft 3s 18 22 mph 1019.4mb 66f 61f
4:00am 2ft 3s 22 25 mph 1018.3mb 66f 63f
3:00am 1.6ft 3s 22 27 mph 1017.9mb 66f 63f
2:00am 2ft 3s 22 27 mph 1017.4mb 67f 65f
1:00am 2ft 3s 20 25 mph 1017.2mb 67f 67f
12:00am 1.6ft 3s 20 25 mph 1016.8mb 69f 68f
Mon 07/25 11:00pm 1.3ft 3s 16 18 mph 1016.8mb 70f 70f
10:00pm 1.3ft 2s 20 25 mph 1016.5mb 72f 71f
9:00pm 0.3ft 2s 13 16 mph 1016.1mb 72f 73f
8:00pm 0.3ft 2s 4 11 mph 1015.8mb 74f 75f
7:00pm 0.3ft 2s 4
mph
1015.7mb 75f 76f
6:00pm 0.3ft 3s  -  2 mph 1016mb 74f 78f
5:00pm 0.3ft 3s 2
mph
1016.5mb 75f 76f
4:00pm 0.3ft 2s 2
mph
1016.9mb 70f 75f
3:00pm 0.3ft 4s 2
mph
1017.3mb 69f 72f
2:00pm 0.3ft 4s 7
mph
1017.6mb 68f 70f
1:00pm 0.3ft 2s 7
mph
1017.8mb 68f 69f
12:00pm 0.7ft 2s 9 11 mph 1018mb 67f 67f
11:00am 1ft 2s 11 13 mph 1018.4mb 67f 66f
10:00am 1ft 2s 11 13 mph 1018.3mb 67f 65f
9:00am 1ft 3s 13 18 mph 1018.2mb 67f 65f
8:00am 1.3ft 2s 16 18 mph 1017.8mb 67f 65f
7:00am 1ft 2s 16 18 mph 1017.7mb 68f 65f
6:00am 1.3ft 3s 16 18 mph 1017.4mb 68f 65f
5:00am 1.3ft 3s 16 20 mph 1017.2mb 69f 65f
4:00am 1.6ft 3s 13 18 mph 1017.1mb 68f 66f
3:00am 1.3ft 3s 16 18 mph 1016.8mb 69f 67f
2:00am 1.3ft 3s 16 18 mph 1016.6mb 69f 67f
1:00am 1ft 3s 13 16 mph 1016.5mb 69f 68f
12:00am 0.7ft 2s 11 13 mph 1016.6mb 69f 69f
Sun 07/24 11:00pm 0.7ft 2s 13 18 mph 1016.4mb 70f 70f
10:00pm 0.7ft 7s 11 13 mph 1016.3mb 71f 72f
9:00pm 0.3ft 2s 13 16 mph 1016.3mb 71f 73f
8:00pm 0.3ft 2s 11 13 mph 1016.4mb 73f 74f
7:00pm 0.3ft 2s  -  2 mph 1016.7mb 73f 74f
6:00pm 0.3ft 2s  -  mph 1017mb 72f 78f
5:00pm 0.3ft 2s 2 4 mph 1017.6mb 72f 74f